Regional Weather Roundup
Issued by NWS

Home | Current Version | Previous Version | Graphics & Text | Print | Product List | Glossary On
Versions: 1 2 3 4 5 6 7 8 9 10 11 12 13 14 15 16 17 18 19 20 21 22 23 24 25 26 27 28 29 30 31 32 33 34 35 36 37 38 39 40 41 42 43 44 45 46 47 48 49 50
000
ASUS43 KOAX 121710
RWRNE

WEATHER ROUNDUP FOR NEBRASKA
NATIONAL WEATHER SERVICE OMAHA NE
1100 AM CST TUE DEC 12 2017

NOTES: SATELLITE DATA IS BEING USED TO AUGMENT CLOUD COVER ABOVE
       12000 FEET.
       "FAIR" INDICATES FEW OR NO CLOUDS BELOW 12,000 FEET WITH NO
       SIGNIFICANT WEATHER AND/OR OBSTRUCTIONS TO VISIBILITY.


NEZ001>004-019>022-054>056-121800-
NEBRASKA PANHANDLE

CITY           SKY/WX    TMP DP  RH WIND       PRES   REMARKS
SCOTTSBLUFF    SUNNY     42  19  39 NW10      30.26F
ALLIANCE       SUNNY     47  23  38 W10       30.21F
CHADRON        SUNNY     44  22  41 W10       30.22S
GORDON         FAIR      45  23  42 W15G22    30.18F
KIMBALL        SUNNY     53  17  24 W15       30.28S
SIDNEY         SUNNY     54  16  22 NW15      30.26F
$$

NEZ057>060-069>072-079>082-121800-
SOUTHWEST NEBRASKA

CITY           SKY/WX    TMP DP  RH WIND       PRES   REMARKS
NORTH PLATTE   SUNNY     36  23  59 W9        30.25  WCI  29
IMPERIAL       SUNNY     47  18  31 NW10      30.26F
LEXINGTON      SUNNY     37  24  58 W8        30.25F WCI  31
MCCOOK         SUNNY     36  19  50 W15       30.27F WCI  27
OGALLALA       SUNNY     38  21  50 W10       30.26F WCI  32
$$

NEZ005>010-023>029-035>040-094-121800-
NORTH CENTRAL NEBRASKA

CITY           SKY/WX    TMP DP  RH WIND       PRES   REMARKS
VALENTINE      SUNNY     39  23  52 W8        30.18  WCI  33
AINSWORTH      SUNNY     39  26  59 W8        30.19F WCI  33
BROKEN BOW     SUNNY     41  24  51 W6        30.22F
O`NEILL        SUNNY     37  29  73 W8        30.20F WCI  31
ORD            SUNNY     40  28  62 W5        30.22F
THEDFORD       SUNNY     41  25  51 W12       30.21F
$$

NEZ041-046>049-061>064-073>077-083>087-121800-
SOUTH CENTRAL NEBRASKA

CITY           SKY/WX    TMP DP  RH WIND       PRES   REMARKS
GRAND ISLAND   SUNNY     38  28  67 W7        30.27F WCI  33
AURORA         SUNNY     39  28  63 W8        30.26F WCI  34
HASTINGS       SUNNY     38  26  62 W9        30.27F WCI  31
HEBRON         SUNNY     40  29  64 W3        30.29F
HOLDREGE       SUNNY     39  28  63 W8        30.25F WCI  34
KEARNEY        SUNNY     40  25  55 W8        30.26F WCI  34
YORK           SUNNY     39  32  75 W9        30.27F WCI  33
$$

NEZ011>018-030>034-042>045-121800-
NORTHEAST NEBRASKA

CITY           SKY/WX    TMP DP  RH WIND       PRES   REMARKS
NORFOLK        CLOUDY    35  29  78 VRB3      30.20F
ALBION         SUNNY     39  29  67 W8        30.23F WCI  33
BLAIR          SUNNY     28  21  75 S5        30.26F WCI  23
COLUMBUS       CLOUDY    38  32  79 SW8       30.25F WCI  32
FREMONT        PTSUNNY   31  23  72 CALM      30.28F
TEKAMAH        SUNNY     28  18  66 MISG      30.28F
WAYNE          CLOUDY    32  28  88 SW6       30.22F WCI  26
$$

NEZ050>053-065>068-078-088>093-121800-
SOUTHEAST NEBRASKA

CITY           SKY/WX    TMP DP  RH WIND       PRES   REMARKS
LINCOLN        CLOUDY    31  24  75 SW6       30.31F WCI  25
OMAHA EPPLEY   MOSUNNY   26  16  65 S3        30.30F
BEATRICE       CLOUDY    33  26  75 SW7       30.30F WCI  27
FALLS CITY     SUNNY     30  16  56 NW8       30.33F WCI  22
NEBRASKA CITY  SUNNY     30  21  68 W5        30.31F WCI  25
PLATTSMOUTH    SUNNY     29  20  70 CALM      30.29F
$$

NEZ044-045-051>053-067-121800-
OMAHA AREA

CITY           SKY/WX    TMP DP  RH WIND       PRES   REMARKS
OMAHA EPPLEY   MOSUNNY   26  16  65 S3        30.30F
BLAIR          SUNNY     28  21  75 S5        30.26F WCI  23
FREMONT        PTSUNNY   31  23  72 CALM      30.28F
OFFUTT AFB     SUNNY     28  16  61 CALM      30.29F
PLATTSMOUTH    SUNNY     29  20  70 CALM      30.29F
WAHOO          PTSUNNY   32  22  65 S3        30.28F
$$




USA.gov is the U.S. government's official web portal to all federal, state and local government web resources and services.